{"data":{"norad_id":67322,"intl_designator":"2026-002T","name":"STARLINK-36434","alt_names":[],"object_type":"PAYLOAD","status":"ACTIVE","operator":null,"country":"US","launch_date":"2026-01-04","launch_site_code":"AFETR","launch_vehicle":null,"mission":null,"orbit_class":"UNKNOWN","rcs_meters":null,"size_class":null,"mass_kg":null,"dimensions":null,"purposes":["comms"],"wikipedia_slug":null,"has_3d_model":false,"image_url":null,"decayed_at":null,"tle_current":{"epoch":"2026-05-24T14:12:07.078176Z","epoch_age_seconds":104162,"freshness":"FRESH","line1":"1 67322U 26002T   26144.59174859  .00017312  00000+0  63734-3 0  9994","line2":"2 67322  43.0004 256.9178 0000079 229.0260 131.0584 15.27570288 22683","mean_motion":15.27570288,"eccentricity":7.9e-6,"inclination_deg":43.0004,"raan_deg":256.9178,"arg_perigee_deg":229.026,"mean_anomaly_deg":131.0584,"bstar":0.00063734,"rev_number":2268,"period_min":94.267348043627,"perigee_km":483.0239738157,"apogee_km":483.13238101551,"semimajor_km":6861.2151774156,"source":"CELESTRAK","updated_at":"2026-05-25T13:38:21.518426Z"}}}